owner,sensor,date,latitude,longitude,air_temperature,qcFlag 
WAVCIS,ioos:station:WAVCIS:CSI06:1,2017-03-01T00:00:00Z,28.8667,-90.4833,22.77,11111222 
WAVCIS,ioos:station:WAVCIS:CSI06:1,2017-03-01T01:00:00Z,28.8667,-90.4833,22.64,11111222 
WAVCIS,ioos:station:WAVCIS:CSI06:1,2017-03-01T02:00:00Z,28.8667,-90.4833,22.66,11111222 
WAVCIS,ioos:station:WAVCIS:CSI06:1,2017-03-01T03:00:00Z,28.8667,-90.4833,22.72,11111222 
WAVCIS,ioos:station:WAVCIS:CSI06:1,2017-03-01T04:00:00Z,28.8667,-90.4833,22.55,11111222 
WAVCIS,ioos:station:WAVCIS:CSI06:1,2017-03-01T05:00:00Z,28.8667,-90.4833,22.53,11111222 
WAVCIS,ioos:station:WAVCIS:CSI06:1,2017-03-01T06:00:00Z,28.8667,-90.4833,22.32,11111222 
WAVCIS,ioos:station:WAVCIS:CSI06:1,2017-03-01T07:00:00Z,28.8667,-90.4833,22.3,11111222 
WAVCIS,ioos:station:WAVCIS:CSI06:1,2017-03-01T08:00:00Z,28.8667,-90.4833,22.22,11111222 
WAVCIS,ioos:station:WAVCIS:CSI06:1,2017-03-01T09:00:00Z,28.8667,-90.4833,22.27,11111222 
WAVCIS,ioos:station:WAVCIS:CSI06:1,2017-03-01T10:00:00Z,28.8667,-90.4833,22.25,11111222 
WAVCIS,ioos:station:WAVCIS:CSI06:1,2017-03-01T11:00:00Z,28.8667,-90.4833,22.26,11111222 
WAVCIS,ioos:station:WAVCIS:CSI06:1,2017-03-01T12:00:00Z,28.8667,-90.4833,22.29,11111222 
WAVCIS,ioos:station:WAVCIS:CSI06:1,2017-03-01T13:00:00Z,28.8667,-90.4833,22.24,11111222 
WAVCIS,ioos:station:WAVCIS:CSI06:1,2017-03-01T14:00:00Z,28.8667,-90.4833,22.58,11111222 
WAVCIS,ioos:station:WAVCIS:CSI06:1,2017-03-01T15:00:00Z,28.8667,-90.4833,22.58,11111222 
WAVCIS,ioos:station:WAVCIS:CSI06:1,2017-03-01T16:00:00Z,28.8667,-90.4833,22.59,11111222 
WAVCIS,ioos:station:WAVCIS:CSI06:1,2017-03-01T17:00:00Z,28.8667,-90.4833,22.53,11111222 
WAVCIS,ioos:station:WAVCIS:CSI06:1,2017-03-01T18:00:00Z,28.8667,-90.4833,22.83,11111222 
WAVCIS,ioos:station:WAVCIS:CSI06:1,2017-03-01T19:00:00Z,28.8667,-90.4833,22.63,11111222 
WAVCIS,ioos:station:WAVCIS:CSI06:1,2017-03-01T20:00:00Z,28.8667,-90.4833,22.97,11111222 
WAVCIS,ioos:station:WAVCIS:CSI06:1,2017-03-01T21:00:00Z,28.8667,-90.4833,23.37,11111222 
WAVCIS,ioos:station:WAVCIS:CSI06:1,2017-03-01T22:00:00Z,28.8667,-90.4833,23.12,11111222 
WAVCIS,ioos:station:WAVCIS:CSI06:1,2017-03-01T23:00:00Z,28.8667,-90.4833,23.24,11111222 
WAVCIS,ioos:station:WAVCIS:CSI06:1,2017-03-02T00:00:00Z,28.8667,-90.4833,22.74,11111222 
WAVCIS,ioos:station:WAVCIS:CSI06:1,2017-03-02T01:00:00Z,28.8667,-90.4833,22.64,11111222 
WAVCIS,ioos:station:WAVCIS:CSI06:1,2017-03-02T02:00:00Z,28.8667,-90.4833,22.58,11111222 
WAVCIS,ioos:station:WAVCIS:CSI06:1,2017-03-02T03:00:00Z,28.8667,-90.4833,22.52,11111222 
WAVCIS,ioos:station:WAVCIS:CSI06:1,2017-03-02T04:00:00Z,28.8667,-90.4833,22.26,11111222 
WAVCIS,ioos:station:WAVCIS:CSI06:1,2017-03-02T05:00:00Z,28.8667,-90.4833,22.03,11111222 
WAVCIS,ioos:station:WAVCIS:CSI06:1,2017-03-02T06:00:00Z,28.8667,-90.4833,21.49,11111222 
WAVCIS,ioos:station:WAVCIS:CSI06:1,2017-03-02T07:00:00Z,28.8667,-90.4833,20.95,11111222 
WAVCIS,ioos:station:WAVCIS:CSI06:1,2017-03-02T08:00:00Z,28.8667,-90.4833,20.32,11111222 
WAVCIS,ioos:station:WAVCIS:CSI06:1,2017-03-02T09:00:00Z,28.8667,-90.4833,19.6,11111222 
WAVCIS,ioos:station:WAVCIS:CSI06:1,2017-03-02T10:00:00Z,28.8667,-90.4833,18.99,11111222 
WAVCIS,ioos:station:WAVCIS:CSI06:1,2017-03-02T11:00:00Z,28.8667,-90.4833,18.32,11111222 
WAVCIS,ioos:station:WAVCIS:CSI06:1,2017-03-02T12:00:00Z,28.8667,-90.4833,17.65,11111222 
WAVCIS,ioos:station:WAVCIS:CSI06:1,2017-03-02T13:00:00Z,28.8667,-90.4833,17.29,11111222 
WAVCIS,ioos:station:WAVCIS:CSI06:1,2017-03-02T14:00:00Z,28.8667,-90.4833,16.9,11111222 
WAVCIS,ioos:station:WAVCIS:CSI06:1,2017-03-02T15:00:00Z,28.8667,-90.4833,16.24,11111222 
WAVCIS,ioos:station:WAVCIS:CSI06:1,2017-03-02T16:00:00Z,28.8667,-90.4833,15.98,11111222 
WAVCIS,ioos:station:WAVCIS:CSI06:1,2017-03-02T17:00:00Z,28.8667,-90.4833,15.92,11111222 
WAVCIS,ioos:station:WAVCIS:CSI06:1,2017-03-02T18:00:00Z,28.8667,-90.4833,16.04,11111222 
WAVCIS,ioos:station:WAVCIS:CSI06:1,2017-03-02T19:00:00Z,28.8667,-90.4833,15.99,11111222 
WAVCIS,ioos:station:WAVCIS:CSI06:1,2017-03-02T20:00:00Z,28.8667,-90.4833,16.46,11111222 
WAVCIS,ioos:station:WAVCIS:CSI06:1,2017-03-02T21:00:00Z,28.8667,-90.4833,17.23,11111222 
WAVCIS,ioos:station:WAVCIS:CSI06:1,2017-03-02T22:00:00Z,28.8667,-90.4833,17.48,11111222 
WAVCIS,ioos:station:WAVCIS:CSI06:1,2017-03-02T23:00:00Z,28.8667,-90.4833,18.13,11111222 
WAVCIS,ioos:station:WAVCIS:CSI06:1,2017-03-03T00:00:00Z,28.8667,-90.4833,18.14,11111222 
WAVCIS,ioos:station:WAVCIS:CSI06:1,2017-03-03T01:00:00Z,28.8667,-90.4833,18.12,11111222 
WAVCIS,ioos:station:WAVCIS:CSI06:1,2017-03-03T02:00:00Z,28.8667,-90.4833,18.13,11111222 
WAVCIS,ioos:station:WAVCIS:CSI06:1,2017-03-03T03:00:00Z,28.8667,-90.4833,18.36,11111222 
WAVCIS,ioos:station:WAVCIS:CSI06:1,2017-03-03T04:00:00Z,28.8667,-90.4833,17.81,11111222 
WAVCIS,ioos:station:WAVCIS:CSI06:1,2017-03-03T05:00:00Z,28.8667,-90.4833,17.72,11111222 
WAVCIS,ioos:station:WAVCIS:CSI06:1,2017-03-03T06:00:00Z,28.8667,-90.4833,17.12,11111222 
WAVCIS,ioos:station:WAVCIS:CSI06:1,2017-03-03T07:00:00Z,28.8667,-90.4833,16.97,11111222 
WAVCIS,ioos:station:WAVCIS:CSI06:1,2017-03-03T08:00:00Z,28.8667,-90.4833,16.54,11111222 
WAVCIS,ioos:station:WAVCIS:CSI06:1,2017-03-03T09:00:00Z,28.8667,-90.4833,16.35,11111222 
WAVCIS,ioos:station:WAVCIS:CSI06:1,2017-03-03T10:00:00Z,28.8667,-90.4833,15.68,11111222 
WAVCIS,ioos:station:WAVCIS:CSI06:1,2017-03-03T11:00:00Z,28.8667,-90.4833,15.55,11111222 
WAVCIS,ioos:station:WAVCIS:CSI06:1,2017-03-03T12:00:00Z,28.8667,-90.4833,15.3,11111222 
WAVCIS,ioos:station:WAVCIS:CSI06:1,2017-03-03T13:00:00Z,28.8667,-90.4833,15.32,11111222 
WAVCIS,ioos:station:WAVCIS:CSI06:1,2017-03-03T14:00:00Z,28.8667,-90.4833,15.58,11111222 
WAVCIS,ioos:station:WAVCIS:CSI06:1,2017-03-03T15:00:00Z,28.8667,-90.4833,15.72,11111222 
WAVCIS,ioos:station:WAVCIS:CSI06:1,2017-03-03T16:00:00Z,28.8667,-90.4833,15.93,11111222 
WAVCIS,ioos:station:WAVCIS:CSI06:1,2017-03-03T17:00:00Z,28.8667,-90.4833,16.07,11111222 
WAVCIS,ioos:station:WAVCIS:CSI06:1,2017-03-03T18:00:00Z,28.8667,-90.4833,16.3,11111222 
WAVCIS,ioos:station:WAVCIS:CSI06:1,2017-03-03T19:00:00Z,28.8667,-90.4833,16.82,11111222 
WAVCIS,ioos:station:WAVCIS:CSI06:1,2017-03-03T20:00:00Z,28.8667,-90.4833,17.16,11111222 
WAVCIS,ioos:station:WAVCIS:CSI06:1,2017-03-03T21:00:00Z,28.8667,-90.4833,17.32,11111222 
WAVCIS,ioos:station:WAVCIS:CSI06:1,2017-03-03T22:00:00Z,28.8667,-90.4833,17.39,11111222 
WAVCIS,ioos:station:WAVCIS:CSI06:1,2017-03-03T23:00:00Z,28.8667,-90.4833,17.44,11111222 
WAVCIS,ioos:station:WAVCIS:CSI06:1,2017-03-04T00:00:00Z,28.8667,-90.4833,17.46,11111222 
WAVCIS,ioos:station:WAVCIS:CSI06:1,2017-03-04T01:00:00Z,28.8667,-90.4833,17.74,11111222 
WAVCIS,ioos:station:WAVCIS:CSI06:1,2017-03-04T02:00:00Z,28.8667,-90.4833,17.93,11111222 
WAVCIS,ioos:station:WAVCIS:CSI06:1,2017-03-04T03:00:00Z,28.8667,-90.4833,18.26,11111222 
WAVCIS,ioos:station:WAVCIS:CSI06:1,2017-03-04T04:00:00Z,28.8667,-90.4833,18.26,11111222 
WAVCIS,ioos:station:WAVCIS:CSI06:1,2017-03-04T05:00:00Z,28.8667,-90.4833,18.32,11111222 
WAVCIS,ioos:station:WAVCIS:CSI06:1,2017-03-04T06:00:00Z,28.8667,-90.4833,18.56,11111222 
WAVCIS,ioos:station:WAVCIS:CSI06:1,2017-03-04T07:00:00Z,28.8667,-90.4833,18.36,11111222 
WAVCIS,ioos:station:WAVCIS:CSI06:1,2017-03-04T08:00:00Z,28.8667,-90.4833,18.26,11111222 
WAVCIS,ioos:station:WAVCIS:CSI06:1,2017-03-04T09:00:00Z,28.8667,-90.4833,18.28,11111222 
WAVCIS,ioos:station:WAVCIS:CSI06:1,2017-03-04T10:00:00Z,28.8667,-90.4833,18.22,11111222 
WAVCIS,ioos:station:WAVCIS:CSI06:1,2017-03-04T11:00:00Z,28.8667,-90.4833,18.17,11111222 
WAVCIS,ioos:station:WAVCIS:CSI06:1,2017-03-04T12:00:00Z,28.8667,-90.4833,18.12,11111222 
WAVCIS,ioos:station:WAVCIS:CSI06:1,2017-03-04T13:00:00Z,28.8667,-90.4833,18.27,11111222 
WAVCIS,ioos:station:WAVCIS:CSI06:1,2017-03-04T14:00:00Z,28.8667,-90.4833,18.56,11111222 
WAVCIS,ioos:station:WAVCIS:CSI06:1,2017-03-04T15:00:00Z,28.8667,-90.4833,18.76,11111222 
WAVCIS,ioos:station:WAVCIS:CSI06:1,2017-03-04T16:00:00Z,28.8667,-90.4833,19.01,11111222 
WAVCIS,ioos:station:WAVCIS:CSI06:1,2017-03-04T17:00:00Z,28.8667,-90.4833,19.5,11111222 
WAVCIS,ioos:station:WAVCIS:CSI06:1,2017-03-04T18:00:00Z,28.8667,-90.4833,19.68,11111222 
WAVCIS,ioos:station:WAVCIS:CSI06:1,2017-03-04T19:00:00Z,28.8667,-90.4833,19.63,11111222 
WAVCIS,ioos:station:WAVCIS:CSI06:1,2017-03-04T20:00:00Z,28.8667,-90.4833,19.73,11111222 
WAVCIS,ioos:station:WAVCIS:CSI06:1,2017-03-04T21:00:00Z,28.8667,-90.4833,19.88,11111222 
WAVCIS,ioos:station:WAVCIS:CSI06:1,2017-03-04T22:00:00Z,28.8667,-90.4833,19.79,11111222 
WAVCIS,ioos:station:WAVCIS:CSI06:1,2017-03-04T23:00:00Z,28.8667,-90.4833,19.54,11111222 
WAVCIS,ioos:station:WAVCIS:CSI06:1,2017-03-05T00:00:00Z,28.8667,-90.4833,19.65,11111222 
WAVCIS,ioos:station:WAVCIS:CSI06:1,2017-03-05T01:00:00Z,28.8667,-90.4833,19.58,11111222 
WAVCIS,ioos:station:WAVCIS:CSI06:1,2017-03-05T02:00:00Z,28.8667,-90.4833,19.44,11111222 
WAVCIS,ioos:station:WAVCIS:CSI06:1,2017-03-05T03:00:00Z,28.8667,-90.4833,19.33,11111222 
WAVCIS,ioos:station:WAVCIS:CSI06:1,2017-03-05T04:00:00Z,28.8667,-90.4833,19.21,11111222 
WAVCIS,ioos:station:WAVCIS:CSI06:1,2017-03-05T05:00:00Z,28.8667,-90.4833,19.24,11111222 
WAVCIS,ioos:station:WAVCIS:CSI06:1,2017-03-05T06:00:00Z,28.8667,-90.4833,19.4,11111222 
WAVCIS,ioos:station:WAVCIS:CSI06:1,2017-03-05T07:00:00Z,28.8667,-90.4833,19.44,11111222 
WAVCIS,ioos:station:WAVCIS:CSI06:1,2017-03-05T08:00:00Z,28.8667,-90.4833,19.52,11111222 
WAVCIS,ioos:station:WAVCIS:CSI06:1,2017-03-05T09:00:00Z,28.8667,-90.4833,19.55,11111222 
WAVCIS,ioos:station:WAVCIS:CSI06:1,2017-03-05T10:00:00Z,28.8667,-90.4833,19.69,11111222 
WAVCIS,ioos:station:WAVCIS:CSI06:1,2017-03-05T11:00:00Z,28.8667,-90.4833,19.92,11111222 
WAVCIS,ioos:station:WAVCIS:CSI06:1,2017-03-05T12:00:00Z,28.8667,-90.4833,20.36,11111222 
WAVCIS,ioos:station:WAVCIS:CSI06:1,2017-03-05T13:00:00Z,28.8667,-90.4833,20.48,11111222 
WAVCIS,ioos:station:WAVCIS:CSI06:1,2017-03-05T14:00:00Z,28.8667,-90.4833,20.83,11111222 
WAVCIS,ioos:station:WAVCIS:CSI06:1,2017-03-05T15:00:00Z,28.8667,-90.4833,21.2,11111222 
WAVCIS,ioos:station:WAVCIS:CSI06:1,2017-03-05T16:00:00Z,28.8667,-90.4833,21.28,11111222 
WAVCIS,ioos:station:WAVCIS:CSI06:1,2017-03-05T17:00:00Z,28.8667,-90.4833,21.45,11111222 
WAVCIS,ioos:station:WAVCIS:CSI06:1,2017-03-05T18:00:00Z,28.8667,-90.4833,21.58,11111222 
WAVCIS,ioos:station:WAVCIS:CSI06:1,2017-03-05T19:00:00Z,28.8667,-90.4833,21.74,11111222 
WAVCIS,ioos:station:WAVCIS:CSI06:1,2017-03-05T20:00:00Z,28.8667,-90.4833,21.26,11111222 
WAVCIS,ioos:station:WAVCIS:CSI06:1,2017-03-05T21:00:00Z,28.8667,-90.4833,21.74,11111222 
WAVCIS,ioos:station:WAVCIS:CSI06:1,2017-03-05T22:00:00Z,28.8667,-90.4833,21.7,11111222 
WAVCIS,ioos:station:WAVCIS:CSI06:1,2017-03-05T23:00:00Z,28.8667,-90.4833,21.89,11111222 
WAVCIS,ioos:station:WAVCIS:CSI06:1,2017-03-06T00:00:00Z,28.8667,-90.4833,21.68,11111222 
WAVCIS,ioos:station:WAVCIS:CSI06:1,2017-03-06T01:00:00Z,28.8667,-90.4833,21.61,11111222 
WAVCIS,ioos:station:WAVCIS:CSI06:1,2017-03-06T02:00:00Z,28.8667,-90.4833,21.63,11111222 
WAVCIS,ioos:station:WAVCIS:CSI06:1,2017-03-06T03:00:00Z,28.8667,-90.4833,21.66,11111222 
WAVCIS,ioos:station:WAVCIS:CSI06:1,2017-03-06T04:00:00Z,28.8667,-90.4833,21.64,11111222 
WAVCIS,ioos:station:WAVCIS:CSI06:1,2017-03-06T05:00:00Z,28.8667,-90.4833,21.69,11111222 
WAVCIS,ioos:station:WAVCIS:CSI06:1,2017-03-06T06:00:00Z,28.8667,-90.4833,21.72,11111222 
WAVCIS,ioos:station:WAVCIS:CSI06:1,2017-03-06T07:00:00Z,28.8667,-90.4833,21.69,11111222 
WAVCIS,ioos:station:WAVCIS:CSI06:1,2017-03-06T08:00:00Z,28.8667,-90.4833,21.66,11111222 
WAVCIS,ioos:station:WAVCIS:CSI06:1,2017-03-06T09:00:00Z,28.8667,-90.4833,21.71,11111222 
WAVCIS,ioos:station:WAVCIS:CSI06:1,2017-03-06T10:00:00Z,28.8667,-90.4833,21.69,11111222 
WAVCIS,ioos:station:WAVCIS:CSI06:1,2017-03-06T11:00:00Z,28.8667,-90.4833,21.7,11111222 
WAVCIS,ioos:station:WAVCIS:CSI06:1,2017-03-06T12:00:00Z,28.8667,-90.4833,21.81,11111222 
WAVCIS,ioos:station:WAVCIS:CSI06:1,2017-03-06T13:00:00Z,28.8667,-90.4833,21.91,11111222 
WAVCIS,ioos:station:WAVCIS:CSI06:1,2017-03-06T14:00:00Z,28.8667,-90.4833,21.91,11111222 
WAVCIS,ioos:station:WAVCIS:CSI06:1,2017-03-06T15:00:00Z,28.8667,-90.4833,22.1,11111222 
WAVCIS,ioos:station:WAVCIS:CSI06:1,2017-03-06T16:00:00Z,28.8667,-90.4833,22.28,11111222 
WAVCIS,ioos:station:WAVCIS:CSI06:1,2017-03-06T17:00:00Z,28.8667,-90.4833,22.24,11111222 
WAVCIS,ioos:station:WAVCIS:CSI06:1,2017-03-06T18:00:00Z,28.8667,-90.4833,22.22,11111222 
WAVCIS,ioos:station:WAVCIS:CSI06:1,2017-03-06T19:00:00Z,28.8667,-90.4833,22.2,11111222 
WAVCIS,ioos:station:WAVCIS:CSI06:1,2017-03-06T20:00:00Z,28.8667,-90.4833,22.17,11111222 
WAVCIS,ioos:station:WAVCIS:CSI06:1,2017-03-06T21:00:00Z,28.8667,-90.4833,22.15,11111222 
WAVCIS,ioos:station:WAVCIS:CSI06:1,2017-03-06T22:00:00Z,28.8667,-90.4833,22.12,11111222 
WAVCIS,ioos:station:WAVCIS:CSI06:1,2017-03-06T23:00:00Z,28.8667,-90.4833,22.07,11111222 
WAVCIS,ioos:station:WAVCIS:CSI06:1,2017-03-07T00:00:00Z,28.8667,-90.4833,22.1,11111222 
WAVCIS,ioos:station:WAVCIS:CSI06:1,2017-03-07T01:00:00Z,28.8667,-90.4833,22.1,11111222 
WAVCIS,ioos:station:WAVCIS:CSI06:1,2017-03-07T02:00:00Z,28.8667,-90.4833,22.12,11111222 
WAVCIS,ioos:station:WAVCIS:CSI06:1,2017-03-07T03:00:00Z,28.8667,-90.4833,21.99,11111222 
WAVCIS,ioos:station:WAVCIS:CSI06:1,2017-03-07T04:00:00Z,28.8667,-90.4833,21.88,11111222 
WAVCIS,ioos:station:WAVCIS:CSI06:1,2017-03-07T05:00:00Z,28.8667,-90.4833,21.9,11111222 
WAVCIS,ioos:station:WAVCIS:CSI06:1,2017-03-07T06:00:00Z,28.8667,-90.4833,21.74,11111222 
WAVCIS,ioos:station:WAVCIS:CSI06:1,2017-03-07T07:00:00Z,28.8667,-90.4833,21.83,11111222 
WAVCIS,ioos:station:WAVCIS:CSI06:1,2017-03-07T08:00:00Z,28.8667,-90.4833,21.49,11111222 
WAVCIS,ioos:station:WAVCIS:CSI06:1,2017-03-07T09:00:00Z,28.8667,-90.4833,21.72,11111222 
WAVCIS,ioos:station:WAVCIS:CSI06:1,2017-03-07T10:00:00Z,28.8667,-90.4833,22.08,11111222 
WAVCIS,ioos:station:WAVCIS:CSI06:1,2017-03-07T11:00:00Z,28.8667,-90.4833,22.23,11111222 
WAVCIS,ioos:station:WAVCIS:CSI06:1,2017-03-07T12:00:00Z,28.8667,-90.4833,22.24,11111222 
WAVCIS,ioos:station:WAVCIS:CSI06:1,2017-03-07T13:00:00Z,28.8667,-90.4833,22.29,11111222 
WAVCIS,ioos:station:WAVCIS:CSI06:1,2017-03-07T14:00:00Z,28.8667,-90.4833,22.45,11111222 
WAVCIS,ioos:station:WAVCIS:CSI06:1,2017-03-07T15:00:00Z,28.8667,-90.4833,22.57,11111222 
WAVCIS,ioos:station:WAVCIS:CSI06:1,2017-03-07T16:00:00Z,28.8667,-90.4833,22.64,11111222 
WAVCIS,ioos:station:WAVCIS:CSI06:1,2017-03-07T17:00:00Z,28.8667,-90.4833,22.56,11111222 
WAVCIS,ioos:station:WAVCIS:CSI06:1,2017-03-07T18:00:00Z,28.8667,-90.4833,22.6,11111222 
WAVCIS,ioos:station:WAVCIS:CSI06:1,2017-03-07T19:00:00Z,28.8667,-90.4833,22.71,11111222 
WAVCIS,ioos:station:WAVCIS:CSI06:1,2017-03-07T20:00:00Z,28.8667,-90.4833,22.66,11111222 
WAVCIS,ioos:station:WAVCIS:CSI06:1,2017-03-07T21:00:00Z,28.8667,-90.4833,22.68,11111222 
WAVCIS,ioos:station:WAVCIS:CSI06:1,2017-03-07T22:00:00Z,28.8667,-90.4833,22.71,11111222 
WAVCIS,ioos:station:WAVCIS:CSI06:1,2017-03-07T23:00:00Z,28.8667,-90.4833,22.52,11111222 
WAVCIS,ioos:station:WAVCIS:CSI06:1,2017-03-08T00:00:00Z,28.8667,-90.4833,22.37,11111222 
WAVCIS,ioos:station:WAVCIS:CSI06:1,2017-03-08T01:00:00Z,28.8667,-90.4833,22.32,11111222 
WAVCIS,ioos:station:WAVCIS:CSI06:1,2017-03-08T02:00:00Z,28.8667,-90.4833,22.18,11111222 
WAVCIS,ioos:station:WAVCIS:CSI06:1,2017-03-08T03:00:00Z,28.8667,-90.4833,22.33,11111222 
WAVCIS,ioos:station:WAVCIS:CSI06:1,2017-03-08T04:00:00Z,28.8667,-90.4833,22.32,11111222 
WAVCIS,ioos:station:WAVCIS:CSI06:1,2017-03-08T05:00:00Z,28.8667,-90.4833,22.17,11111222 
WAVCIS,ioos:station:WAVCIS:CSI06:1,2017-03-08T06:00:00Z,28.8667,-90.4833,22.07,11111222 
WAVCIS,ioos:station:WAVCIS:CSI06:1,2017-03-08T07:00:00Z,28.8667,-90.4833,22.21,11111222 
WAVCIS,ioos:station:WAVCIS:CSI06:1,2017-03-08T08:00:00Z,28.8667,-90.4833,19.92,11111222 
WAVCIS,ioos:station:WAVCIS:CSI06:1,2017-03-08T09:00:00Z,28.8667,-90.4833,19.99,11111222 
WAVCIS,ioos:station:WAVCIS:CSI06:1,2017-03-08T10:00:00Z,28.8667,-90.4833,19.87,11111222 
WAVCIS,ioos:station:WAVCIS:CSI06:1,2017-03-08T11:00:00Z,28.8667,-90.4833,19.7,11111222 
WAVCIS,ioos:station:WAVCIS:CSI06:1,2017-03-08T12:00:00Z,28.8667,-90.4833,19.59,11111222 
WAVCIS,ioos:station:WAVCIS:CSI06:1,2017-03-08T13:00:00Z,28.8667,-90.4833,19.56,11111222 
WAVCIS,ioos:station:WAVCIS:CSI06:1,2017-03-08T14:00:00Z,28.8667,-90.4833,20.09,11111222 
WAVCIS,ioos:station:WAVCIS:CSI06:1,2017-03-08T15:00:00Z,28.8667,-90.4833,19.87,11111222 
WAVCIS,ioos:station:WAVCIS:CSI06:1,2017-03-08T16:00:00Z,28.8667,-90.4833,20.01,11111222 
WAVCIS,ioos:station:WAVCIS:CSI06:1,2017-03-08T17:00:00Z,28.8667,-90.4833,19.39,11111222 
WAVCIS,ioos:station:WAVCIS:CSI06:1,2017-03-08T18:00:00Z,28.8667,-90.4833,18.73,11111222 
WAVCIS,ioos:station:WAVCIS:CSI06:1,2017-03-08T19:00:00Z,28.8667,-90.4833,18.52,11111222 
WAVCIS,ioos:station:WAVCIS:CSI06:1,2017-03-08T20:00:00Z,28.8667,-90.4833,18.28,11111222 
WAVCIS,ioos:station:WAVCIS:CSI06:1,2017-03-08T21:00:00Z,28.8667,-90.4833,18.49,11111222 
WAVCIS,ioos:station:WAVCIS:CSI06:1,2017-03-08T22:00:00Z,28.8667,-90.4833,18.86,11111222 
WAVCIS,ioos:station:WAVCIS:CSI06:1,2017-03-08T23:00:00Z,28.8667,-90.4833,18.94,11111222 
WAVCIS,ioos:station:WAVCIS:CSI06:1,2017-03-09T00:00:00Z,28.8667,-90.4833,19.03,11111222 
WAVCIS,ioos:station:WAVCIS:CSI06:1,2017-03-09T01:00:00Z,28.8667,-90.4833,19.1,11111222 
WAVCIS,ioos:station:WAVCIS:CSI06:1,2017-03-09T02:00:00Z,28.8667,-90.4833,19.16,11111222 
WAVCIS,ioos:station:WAVCIS:CSI06:1,2017-03-09T03:00:00Z,28.8667,-90.4833,18.97,11111222 
WAVCIS,ioos:station:WAVCIS:CSI06:1,2017-03-09T04:00:00Z,28.8667,-90.4833,19.32,11111222 
WAVCIS,ioos:station:WAVCIS:CSI06:1,2017-03-09T05:00:00Z,28.8667,-90.4833,19.58,11111222 
WAVCIS,ioos:station:WAVCIS:CSI06:1,2017-03-09T06:00:00Z,28.8667,-90.4833,19.78,11111222 
WAVCIS,ioos:station:WAVCIS:CSI06:1,2017-03-09T07:00:00Z,28.8667,-90.4833,19.83,11111222 
WAVCIS,ioos:station:WAVCIS:CSI06:1,2017-03-09T08:00:00Z,28.8667,-90.4833,19.99,11111222 
WAVCIS,ioos:station:WAVCIS:CSI06:1,2017-03-09T09:00:00Z,28.8667,-90.4833,20.42,11111222 
WAVCIS,ioos:station:WAVCIS:CSI06:1,2017-03-09T10:00:00Z,28.8667,-90.4833,20.57,11111222 
WAVCIS,ioos:station:WAVCIS:CSI06:1,2017-03-09T11:00:00Z,28.8667,-90.4833,20.58,11111222 
WAVCIS,ioos:station:WAVCIS:CSI06:1,2017-03-09T12:00:00Z,28.8667,-90.4833,20.58,11111222 
WAVCIS,ioos:station:WAVCIS:CSI06:1,2017-03-09T13:00:00Z,28.8667,-90.4833,20.75,11111222 
WAVCIS,ioos:station:WAVCIS:CSI06:1,2017-03-09T14:00:00Z,28.8667,-90.4833,21.18,11111222 
WAVCIS,ioos:station:WAVCIS:CSI06:1,2017-03-09T15:00:00Z,28.8667,-90.4833,21.37,11111222 
WAVCIS,ioos:station:WAVCIS:CSI06:1,2017-03-09T16:00:00Z,28.8667,-90.4833,21.74,11111222 
WAVCIS,ioos:station:WAVCIS:CSI06:1,2017-03-09T17:00:00Z,28.8667,-90.4833,21.91,11111222 
WAVCIS,ioos:station:WAVCIS:CSI06:1,2017-03-09T18:00:00Z,28.8667,-90.4833,21.98,11111222 
WAVCIS,ioos:station:WAVCIS:CSI06:1,2017-03-09T19:00:00Z,28.8667,-90.4833,22.12,11111222 
WAVCIS,ioos:station:WAVCIS:CSI06:1,2017-03-09T20:00:00Z,28.8667,-90.4833,22.26,11111222 
WAVCIS,ioos:station:WAVCIS:CSI06:1,2017-03-09T21:00:00Z,28.8667,-90.4833,22.41,11111222 
WAVCIS,ioos:station:WAVCIS:CSI06:1,2017-03-09T22:00:00Z,28.8667,-90.4833,22.33,11111222 
WAVCIS,ioos:station:WAVCIS:CSI06:1,2017-03-09T23:00:00Z,28.8667,-90.4833,22.4,11111222 
WAVCIS,ioos:station:WAVCIS:CSI06:1,2017-03-10T00:00:00Z,28.8667,-90.4833,21.79,11111222 
WAVCIS,ioos:station:WAVCIS:CSI06:1,2017-03-10T01:00:00Z,28.8667,-90.4833,21.47,11111222 
WAVCIS,ioos:station:WAVCIS:CSI06:1,2017-03-10T02:00:00Z,28.8667,-90.4833,21.39,11111222 
WAVCIS,ioos:station:WAVCIS:CSI06:1,2017-03-10T03:00:00Z,28.8667,-90.4833,21.37,11111222 
WAVCIS,ioos:station:WAVCIS:CSI06:1,2017-03-10T04:00:00Z,28.8667,-90.4833,21.48,11111222 
WAVCIS,ioos:station:WAVCIS:CSI06:1,2017-03-10T05:00:00Z,28.8667,-90.4833,21.38,11111222 
WAVCIS,ioos:station:WAVCIS:CSI06:1,2017-03-10T06:00:00Z,28.8667,-90.4833,21.35,11111222 
WAVCIS,ioos:station:WAVCIS:CSI06:1,2017-03-10T07:00:00Z,28.8667,-90.4833,21.33,11111222 
WAVCIS,ioos:station:WAVCIS:CSI06:1,2017-03-10T08:00:00Z,28.8667,-90.4833,21.23,11111222 
WAVCIS,ioos:station:WAVCIS:CSI06:1,2017-03-10T09:00:00Z,28.8667,-90.4833,21.19,11111222 
WAVCIS,ioos:station:WAVCIS:CSI06:1,2017-03-10T10:00:00Z,28.8667,-90.4833,21.22,11111222 
WAVCIS,ioos:station:WAVCIS:CSI06:1,2017-03-10T11:00:00Z,28.8667,-90.4833,21.19,11111222 
WAVCIS,ioos:station:WAVCIS:CSI06:1,2017-03-10T12:00:00Z,28.8667,-90.4833,21.19,11111222 
WAVCIS,ioos:station:WAVCIS:CSI06:1,2017-03-10T13:00:00Z,28.8667,-90.4833,21.45,11111222 
WAVCIS,ioos:station:WAVCIS:CSI06:1,2017-03-10T14:00:00Z,28.8667,-90.4833,23.03,11111222 
WAVCIS,ioos:station:WAVCIS:CSI06:1,2017-03-10T15:00:00Z,28.8667,-90.4833,21.88,11111222 
WAVCIS,ioos:station:WAVCIS:CSI06:1,2017-03-10T16:00:00Z,28.8667,-90.4833,21.78,11111222 
WAVCIS,ioos:station:WAVCIS:CSI06:1,2017-03-10T17:00:00Z,28.8667,-90.4833,22.84,11111222 
WAVCIS,ioos:station:WAVCIS:CSI06:1,2017-03-10T18:00:00Z,28.8667,-90.4833,21.96,11111222 
WAVCIS,ioos:station:WAVCIS:CSI06:1,2017-03-10T19:00:00Z,28.8667,-90.4833,22.09,11111222 
WAVCIS,ioos:station:WAVCIS:CSI06:1,2017-03-10T20:00:00Z,28.8667,-90.4833,22.14,11111222 
WAVCIS,ioos:station:WAVCIS:CSI06:1,2017-03-10T21:00:00Z,28.8667,-90.4833,22.87,11111222 
WAVCIS,ioos:station:WAVCIS:CSI06:1,2017-03-10T22:00:00Z,28.8667,-90.4833,22.88,11111222 
WAVCIS,ioos:station:WAVCIS:CSI06:1,2017-03-10T23:00:00Z,28.8667,-90.4833,22.14,11111222 
WAVCIS,ioos:station:WAVCIS:CSI06:1,2017-03-11T00:00:00Z,28.8667,-90.4833,21.67,11111222 
WAVCIS,ioos:station:WAVCIS:CSI06:1,2017-03-11T01:00:00Z,28.8667,-90.4833,21.51,11111222 
WAVCIS,ioos:station:WAVCIS:CSI06:1,2017-03-11T02:00:00Z,28.8667,-90.4833,21.55,11111222 
WAVCIS,ioos:station:WAVCIS:CSI06:1,2017-03-11T03:00:00Z,28.8667,-90.4833,21.58,11111222 
WAVCIS,ioos:station:WAVCIS:CSI06:1,2017-03-11T04:00:00Z,28.8667,-90.4833,21.53,11111222 
WAVCIS,ioos:station:WAVCIS:CSI06:1,2017-03-11T05:00:00Z,28.8667,-90.4833,21.48,11111222 
WAVCIS,ioos:station:WAVCIS:CSI06:1,2017-03-11T06:00:00Z,28.8667,-90.4833,21.41,11111222 
WAVCIS,ioos:station:WAVCIS:CSI06:1,2017-03-11T07:00:00Z,28.8667,-90.4833,21.35,11111222 
WAVCIS,ioos:station:WAVCIS:CSI06:1,2017-03-11T08:00:00Z,28.8667,-90.4833,21.39,11111222 
WAVCIS,ioos:station:WAVCIS:CSI06:1,2017-03-11T09:00:00Z,28.8667,-90.4833,21.24,11111222 
WAVCIS,ioos:station:WAVCIS:CSI06:1,2017-03-11T10:00:00Z,28.8667,-90.4833,21.17,11111222 
WAVCIS,ioos:station:WAVCIS:CSI06:1,2017-03-11T11:00:00Z,28.8667,-90.4833,21.21,11111222 
WAVCIS,ioos:station:WAVCIS:CSI06:1,2017-03-11T12:00:00Z,28.8667,-90.4833,21.21,11111222 
WAVCIS,ioos:station:WAVCIS:CSI06:1,2017-03-11T13:00:00Z,28.8667,-90.4833,20.98,11111222 
WAVCIS,ioos:station:WAVCIS:CSI06:1,2017-03-11T14:00:00Z,28.8667,-90.4833,20.71,11111222 
WAVCIS,ioos:station:WAVCIS:CSI06:1,2017-03-11T15:00:00Z,28.8667,-90.4833,20.88,11111222 
WAVCIS,ioos:station:WAVCIS:CSI06:1,2017-03-11T16:00:00Z,28.8667,-90.4833,21.16,11111222 
WAVCIS,ioos:station:WAVCIS:CSI06:1,2017-03-11T17:00:00Z,28.8667,-90.4833,21.02,11111222 
WAVCIS,ioos:station:WAVCIS:CSI06:1,2017-03-11T18:00:00Z,28.8667,-90.4833,21.06,11111222 
WAVCIS,ioos:station:WAVCIS:CSI06:1,2017-03-11T19:00:00Z,28.8667,-90.4833,20.75,11111222 
WAVCIS,ioos:station:WAVCIS:CSI06:1,2017-03-11T20:00:00Z,28.8667,-90.4833,20.67,11111222 
WAVCIS,ioos:station:WAVCIS:CSI06:1,2017-03-11T21:00:00Z,28.8667,-90.4833,21.19,11111222 
WAVCIS,ioos:station:WAVCIS:CSI06:1,2017-03-11T22:00:00Z,28.8667,-90.4833,21.94,11111222 
WAVCIS,ioos:station:WAVCIS:CSI06:1,2017-03-11T23:00:00Z,28.8667,-90.4833,21.83,11111222 
WAVCIS,ioos:station:WAVCIS:CSI06:1,2017-03-12T00:00:00Z,28.8667,-90.4833,21.8,11111222 
WAVCIS,ioos:station:WAVCIS:CSI06:1,2017-03-12T01:00:00Z,28.8667,-90.4833,21.84,11111222 
WAVCIS,ioos:station:WAVCIS:CSI06:1,2017-03-12T02:00:00Z,28.8667,-90.4833,21.88,11111222 
WAVCIS,ioos:station:WAVCIS:CSI06:1,2017-03-12T03:00:00Z,28.8667,-90.4833,21.92,11111222 
WAVCIS,ioos:station:WAVCIS:CSI06:1,2017-03-12T04:00:00Z,28.8667,-90.4833,21.87,11111222 